Regional Weather Roundup
Issued by NWS

Home | Current Version | Previous Version | Text Only | Print | Product List | Glossary On
Versions: 1 2 3 4 5 6 7 8 9 10 11 12 13 14 15 16 17 18 19 20 21 22 23 24 25 26 27 28 29 30 31 32 33 34 35 36 37 38 39 40 41 42 43 44 45 46 47 48 49 50
000
ASUS43 KDMX 301101
RWRIA

WEATHER ROUNDUP FOR IOWA
NATIONAL WEATHER SERVICE DES MOINES IA
600 AM CDT SUN APR 30 2017

NOTE: "FAIR" INDICATES FEW OR NO CLOUDS BELOW 12,000 FEET WITH NO
SIGNIFICANT WEATHER AND/OR OBSTRUCTIONS TO VISIBILITY.

* - THESE STATIONS ARE NOT NWS STATIONS...THUS NOT UNDER NWS
QUALITY CONTROL.  THEY ALSO DO NOT REPORT WEATHER SUCH
AS PRECIPITATION OR FOG.

IAZ001>003-012>014-020>022-031>034-043>046-301200-
   NORTHWEST IOWA

CITY           SKY/WX    TMP DP  RH WIND       PRES   REMARKS
CARROLL *      LGT RAIN  37  37 100 NE20      29.87F WCI  27
CHEROKEE *     DRIZZLE   38  37  97 NE6       29.94F WCI  34
DENISON *      CLOUDY    37  37 100 NE17G28   29.87F FOG     WCI  28
ORANGE CITY *  LGT RAIN  39  37  93 NE8       29.95F WCI  34
SHELDON *      LGT RAIN  39  36  87 NE10      29.96S WCI  32
SIOUX CITY     LGT RAIN  39  37  92 NE15G24   29.93F WCI  31
SPENCER        LGT RAIN  40  36  86 NE18      29.96F WCI  31
STORM LAKE *   CLOUDY    37  36  93 NE23G33   29.91F WCI  26
$$

IAZ055>058-069>071-079>083-090>094-301200-
   SOUTHWEST IOWA

CITY           SKY/WX    TMP DP  RH WIND       PRES   REMARKS
ATLANTIC *     MIX PCPN  39  39 100 NE16G26   29.79F WCI  30
AUDUBON *      LGT RAIN  37  36  93 NE18G25   29.84F WCI  27
CLARINDA *     CLOUDY    41  39  93 NE20G30   29.71F
COUNCIL BLFS * CLOUDY    37  37 100 NE22      29.76F WCI  27
CRESTON *      CLOUDY    39  39 100 NE24G31   29.75F FOG     WCI  28
HARLAN  *      CLOUDY    37  37 100 NE20G29   29.84F FOG     WCI  27
LAMONI         CLOUDY    41  40  96 NE20G29   29.72F
RED OAK *      CLOUDY    39  39 100 NE22G31   29.73F WCI  29
SHENANDOAH *   MIX PCPN  39  39 100 NE23G36   29.70F WCI  29
$$

IAZ047>049-059>061-072>074-084-301200-
   CENTRAL IOWA

CITY           SKY/WX    TMP DP  RH WIND       PRES   REMARKS
AMES           CLOUDY    40  40 100 NE14G20   29.87F WCI  32
ANKENY *       CLOUDY    39  39 100 NE14G22   29.85F WCI  31
BOONE *        CLOUDY    37  37 100 NE16G22   29.85F FOG     WCI  28
CHARITON *     CLOUDY    41  41 100 NE16      29.78F FOG
DES MOINES     DRIZZLE   41  39  93 NE15G22   29.83F
GRINNELL*      CLOUDY    40  39  95 NE17      29.86F WCI  31
KNOXVILLE *    CLOUDY    41  39  93 NE16G22   29.78F FOG
MARSHALLTOWN   CLOUDY    40  39  97 NE16      29.89S WCI  31
NEWTON *       CLOUDY    41  39  93 NE14G21   29.83F
PELLA *        DRIZZLE   41  40  98 NE7G17    29.84F
PERRY *        RAIN      39  38  95 NE14G22   29.86F WCI  31
$$

IAZ004>006-015-016-023>025-035-036-301200-
   NORTH CENTRAL IOWA

CITY           SKY/WX    TMP DP  RH WIND       PRES   REMARKS
ALGONA *       LGT RAIN  39  37  93 NE18G29   29.94F WCI  30
CLARION *      CLOUDY    39  39 100 NE21G26   29.92S FOG     WCI  29
ESTHERVILLE    LGT RAIN  39  36  89 NE16      29.97F WCI  30
FORT DODGE *   CLOUDY    37  34  87 NE14      29.92F WCI  29
MASON CITY     CLOUDY    39  33  79 NE17      29.94F WCI  30
FOREST CITY *  DRIZZLE   37  32  81 NE12G18   29.94F WCI  30
WEBSTER CITY * LGT RAIN  39  37  93 NE17      29.88F WCI  30
IOWA FALLS *   CLOUDY    39  37  91 NE13G18   29.91F WCI  32
$$

IAZ007>011-017>019-026>030-037>042-050>054-066-301200-
   NORTHEAST IOWA

CITY           SKY/WX    TMP DP  RH WIND       PRES   REMARKS
CEDAR RAPIDS   CLOUDY    41  41 100 NE20      29.85F
CHARLES CITY * LGT RAIN  41  34  75 NE16G23   29.94F
CLINTON *      CLOUDY    43  41  93 E24G30    29.86F
DECORAH *      CLOUDY    41  32  70 NE15G22   29.94F
DUBUQUE        CLOUDY    40  39  97 NE20G35   29.88F FOG     WCI  30
MONTICELLO *   CLOUDY    41  41 100 NE13G26   29.87F
OELWEIN *      CLOUDY    41  39  93 NE20G30   29.91F
WATERLOO       CLOUDY    41  37  86 NE18G28   29.89F
$$

IAZ064-065-067-068-078-301200-
   EAST CENTRAL IOWA

CITY           SKY/WX    TMP DP  RH WIND       PRES   REMARKS
DAVENPORT      CLOUDY    43  41  93 E21G30    29.84F
IOWA CITY      CLOUDY    44  41  89 NE10      29.86F
MUSCATINE *    CLOUDY    45  43  93 NE17G24   29.84R
QUAD CITIES    CLOUDY    44  41  89 E24G31    29.82F
$$

IAZ062-063-075>077-085>089-095>099-301200-
   SOUTHEAST IOWA

CITY           SKY/WX    TMP DP  RH WIND       PRES   REMARKS
BURLINGTON     CLOUDY    45  45 100 E21G30    29.73F
FAIRFIELD *    CLOUDY    43  43 100 NE16      29.80F FOG
FORT MADISON * CLOUDY    45  45 100 E18G33    29.70F
KEOKUK *       CLOUDY    46  45  93 E13G21    29.68F
OSKALOOSA *    LGT RAIN  41  40  97 NE15G22   29.82F
OTTUMWA        LGT RAIN  43  42  97 NE17      29.81S FOG
WASHINGTON *   LGT RAIN  43  43 100 NE18G24   29.82F
$$

ABBREVIATIONS USED IN REMARKS
   TC - TEMPERATURES IN CELSIUS
  WCI - WIND CHILL INDEX
   HX - HEAT INDEX
  VSB - VISIBILITY
$$




USA.gov is the U.S. government's official web portal to all federal, state and local government web resources and services.